Regional Weather Roundup
Issued by NWS Charleston, WV

Home | Current Version | Previous Version | Graphics & Text | Print | Product List | Glossary On
Versions: 1 2 3 4 5 6 7 8 9 10 11 12 13 14 15 16 17 18 19 20 21 22 23 24 25 26 27 28 29 30 31 32 33 34 35 36 37 38 39 40 41 42 43 44 45 46 47 48 49 50
623
ASUS41 KRLX 080910
RWRRLX
West Virginia Regional Weather Roundup
National Weather Service Charleston WV
400 AM EST MON FEB 08 2016

Note: "fair" indicates few or no clouds below 12,000 feet with no
significant weather and/or obstructions to visibility.

WVZ003-081000-
Northern Panhandle of West Virginia

CITY           SKY/WX    TMP DP  RH WIND       PRES   REMARKS
WHEELING         N/A     37  22  54 SE8       29.70F
$$

WVZ009-081000-
Northwest West Virginia

CITY           SKY/WX    TMP DP  RH WIND       PRES   REMARKS
PARKERSBURG      N/A     36  24  62 S3        29.73F
$$

WVZ006-081000-
Western West Virginia

CITY           SKY/WX    TMP DP  RH WIND       PRES   REMARKS
HUNTINGTON     MOCLDY    39  22  50 S7        29.71F
$$

WVZ015-081000-
West Central West Virginia

CITY           SKY/WX    TMP DP  RH WIND       PRES   REMARKS
CHARLESTON     MOCLDY    31  25  78 CALM      29.73F
$$

WVZ022-031-081000-
North Central West Virginia

CITY           SKY/WX    TMP DP  RH WIND       PRES   REMARKS
CLARKSBURG       N/A     28  23  81 CALM      29.73F
MORGANTOWN       N/A     30  22  72 CALM      29.74F
$$

WVZ025-035-042-045-081000-
Southern West Virginia

CITY           SKY/WX    TMP DP  RH WIND       PRES   REMARKS
BECKLEY          N/A     34  21  59 SW6       29.73F
LOGAN          CLOUDY    37  23  56 S3        29.73F
BLUEFIELD        N/A     32  20  61 W6        29.74F
LEWISBURG        N/A     26  22  85 CALM      29.75F
$$

WVZ047-081000-
Northern Mountains of West Virginia

CITY           SKY/WX    TMP DP  RH WIND       PRES   REMARKS
ELKINS           N/A     20  16  84 CALM      29.75F
$$

WVZ052-081000-
Eastern Panhandle of West Virginia

CITY           SKY/WX    TMP DP  RH WIND       PRES   REMARKS
MARTINSBURG      N/A     22  19  89 CALM      29.79F
PETERSBURG       N/A     23  22  94 CALM      29.80F
$$




USA.gov is the U.S. government's official web portal to all federal, state and local government web resources and services.